Location: Marcé
(47.5801°N, 0.3280°W)
Time: 09:01:36
(UTC+01:00)

BlueWalker 3 - Pass Details

Date: 07 December 2022
Orbit: 499 x 517 km, 53.2° (Epoch: 29 January)

Event Time Altitude Azimuth Distance (km) Brightness Sun altitude
Rises 20:18:18 0° 296° (WNW) 2,625 6.5 -30.7°
Reaches altitude 10° 20:20:36 10° 288° (WNW) 1,732 5.5 -31.1°
Enters shadow 20:22:07 21° 275° (W) 1,198 4.5 -31.4°
